STARLINK-31656, 60286

Orbit data source: Space-Track

STARLINK-31656, 60286 is a payload satellite owned by SpaceX/Seattle (US) in LEO that was launched on Sun, 28 Jul 2024 UTC via an FALCON 9 launch vehicle from the Air Force Eastern Test Range (AFETR). Payload-class satellites include a variety of spacecraft equipped with specific instruments for various scientific and technological missions. These include communications satellites like Starlink; space stations such as the ISS; scientific satellites like the Hubble; Earth observation satellites from companies like Planet Labs, Umbra, and HawkEye 360; GPS; miniature CubeSats for education and research; and military/defense satellites.

Loading next visibility...
Identifier
60286, 2024-132J
Orbit
LEO
Country
Flag of USUS
Related business
Manufacturer
SpaceX/Seattle
Mission
Operational spacecraft
Bus & Motor
STARLINK V2M, Unknown motor
Mass
730 kg wet, ~700 kg dry
Launch date (UTC)
2024-07-28 (1 year ago)
Launch vehicle
FALCON 9
Launch site
Air Force Eastern Test Range (AFETR)
Object type
Payload
Rocket body
Debris
Shape & HBR
Unknown
Radar Cross Section
Large (>1 m²)

Expand to show TLE details & history
Last TLE update: 13 hours ago

TLE from 13 hours ago
0 STARLINK-31656
1 60286U 24132J   25261.06318300  .00006405  00000-0  22820-3 0  9993
2 60286  53.1600 134.0470 0001325  61.9789 298.1346 15.30197987 65137
Epoch: 2025-09-18T01:30Z
TLE epoch observation values (Epoch: 2025-09-18T01:30:59.011Z)
Latitude
0.00002°
Longitude
114.07097°
Altitude
475.693 km
Speed
7.629 km/s
True Right ascension
08h 56m 11s
True Declination
0° 00' 00"
Sunlit
Object was in daylight at epoch
Visualization orbit readout
Latitude
Unknown
Longitude
Unknown
Altitude
Unknown
Speed
Unknown
Apparent Right ascension
Unknown
Apparent Declination
Unknown
Sunlit
N/A
Visualization observer readout
Local Sidereal Time
07:41:56
Azimuth
Unknown
Elevation
Unknown
Doppler factor
Unknown
Orbital elements
Apogee altitude
476.386 km
Perigee altitude
474.569 km
Semi-major axis
6,853.615 km
Eccentricity
0.00013
Inclination
53.16°
RAAN
134.047°
Arg. of periapsis
61.9789°
True anomaly
298.12121°
Mean anomaly
298.1346°
Eccentric anomaly
298.1279°
Mean motion
3.82528 °/min
Orbital period
94.11 mins
BSTAR
0.0002282
Loading maneuver chart data...
Computing Atmospheric mass density...
Loading historical data...
Loading historical data...
Loading historical data...
Loading historical data...
Loading historical data...
Loading historical data...
Loading historical data...

Documentation

Showing up to 5 results
|